SCP
0 0 0 0 0 0 0 0 0 0 0 0 0 0 0 0 0 0 0 0 0 0 0 0 0 0 0 0 0 0 0 0 0 0 0 0 0 0 0 0 0 0 0 0 0 0 0 0 0 0 0 -0 -0 -0
0 0 0 0 0 0 0 0 0 0 0 0 0 0 0 0 0 0 0 0 0 0 0 0 -0 -0 -0 -0 0 0 0 0 0 0 0 0 0 0 0 0 0 0 0 0 0 0 0 0 0 0 0 -0 0 -0
0 0 0 0 0 0 0 0 0 0 0 0 0 0 0 0 0 0 0 0 0 0 0 0 -0 -0 -0 0 0 0 0 0 0 0 0 0 0 0 0 0 0 0 0 0 0 0 0 0 0 0 0 0 0 0
0 0 0 0 0 0 0 0 0 0 0 0 0 0 0 0 0 0 0 0 0 0 0 -0 0 -0 -0 -0 0 0 0 0 0 0 0 0 0 0 0 0 0 0 0 0 0 0 0 0 0 0 0 0 0 0
0 0 0 0 0 0 0 0 0 0 0 0 0 0 0 0 0 0 0 0 0 0 0 0 -0 -0 -0 0 -0 -0 0 0 0 0 0 0 0 0 0 0 0 0 0 0 0 0 0 0 0 -0 -0 -0 -0 -0
0 0 0 0 0 0 0 0 0 0 0 0 0 0 0 0 0 0 0 0 0 0 -0 0 0 0 -0 -0 -0 0 -0 0 0 0 0 0 0 0 0 0 0 0 0 0 0 0 0 0 0 0 0 -0 -0 -0
0 0 0 0 0 0 0 0 0 0 0 0 0 0 0 0 0 0 0 0 0 0 0 0 0 -0 -0 -0 -0 0 0 0 0 0 0 0 0 0 0 0 0 0 0 0 0 -0 0 0 0 0 0 0 -0 -0
0 0 0 0 0 0 0 0 0 0 0 0 -0 0 0 0 0 0 0 0 0 0 0 -0 0 0 0 -0 0 0 0 0 0 0 0 0 0 0 0 0 0 0 0 0 0 0 0 0 0 0 0 0 0 0
0 0 0 0 0 0 0 0 0 0 0 -0 0 0 0 0 0 0 0 0 0 0 -0 -0 -0 0 0 0 -0 -0 0 0 0 0 0 0 0 0 0 -0 -0 0 0 0 0 0 0 0 0 0 0 0 0 0
0 0 0 0 0 0 0 0 0 0 0 0 0 0 0 0 0 0 0 0 0 0 -0 -0 0 0 0 0 0 0 0 0 0 0 0 0 0 -0 0 0 -0 0 0 0 0 0 0 0 0 0 0 0 0 0
0 0 0 0 0 0 0 0 0 0 0 0 0 0 0 0 0 0 0 0 0 0 -0 -0 0 0 0 0 0 0 0 0 0 0 0 0 0 -0 -0 -0 -0 0 0 0 0 0 0 0 0 0 0 0 0 0
0 0 0 0 0 0 0 0 0 0 0 0 0 0 0 0 0 0 0 0 0 0 0 -0 0 0 0 0 0 0 0 0 0 0 0 0 0 0 0 0 0 0 0 0 0 -0 -0 -0 0 0 0 0 0 0
0 0 0 0 0 0 0 0 0 -0 0 0 0 0 0 0 0 0 0 0 0 0 0 0 0 0 0 0 0 0 0 0 0 0 0 0 0 0 0 0 0 0 -0 -0 -0 -0 -0 -0 0 0 0 0 0 0
0 0 0 0 0 0 0 0 -0 0 0 0 0 0 0 0 0 0 0 0 0 0 0 0 0 0 0 0 0 0 0 0 0 0 0 0 0 0 0 0 0 0 0 0 0 0 0 0 0 0 0 0 0 0
0 0 0 0 0 0 -0 -0 0 0 0 0 0 0 0 0 0 0 0 0 0 0 0 0 0 0 0 0 0 0 0 0 0 0 0 0 0 0 0 0 0 0 0 0 0 0 0 0 0 0 0 0 0 0
0 0 0 0 0 0 0 0 0 0 0 0 0 0 0 0 0 0 0 0 -0 0 0 0 0 0 0 0 0 0 0 0 0 0 0 0 0 0 0 0 0 0 0 0 0 0 0 0 0 0 0 0 0 0
0 0 0 0 0 0 0 0 0 0 0 0 -0 0 0 0 0 0 0 -0 0 0 0 0 0 0 0 0 0 0 0 0 0 0 0 0 0 0 0 0 0 0 0 0 0 0 0 0 0 0 0 0 0 0
0 0 0 0 0 0 0 0 -0 0 0 0 0 0 0 0 0 0 -0 -0 -0 0 0 0 0 0 0 0 0 0 0 0 0 0 0 0 0 0 0 0 0 0 0 0 0 0 0 0 0 0 0 0 0 0
0 0 0 0 0 0 0 -0 0 0 -0 0 0 0 0 0 -0 -0 0 0 0 0 0 0 0 0 0 0 0 0 0 0 0 0 0 0 0 -0 0 0 0 0 -0 -0 0 0 0 0 0 0 0 -0 -0 -0
-0 -0 -0 -0 -0 -0 -0 -0 0 0 0 0 0 0 0 -0 -0 0 0 0 0 0 0 0 0 0 0 0 0 0 0 0 0 0 0 0 0 0 0 -0 0 -0 -0 -0 0 0 0 -0 -0 -0 -0 -0 0 0
0 0 -0 -0 -0 -0 -0 0 0 0 0 0 0 -0 -0 -0 -0 -0 0 0 0 0 0 0 0 0 0 0 0 0 0 0 0 0 0 0 0 0 0 0 -0 -0 -0 -0 0 0 0 0 -0 -0 -0 0 0 0
0 -0 -0 -0 -0 -0 -0 -0 0 0 0 0 -0 -0 -0 -0 0 0 0 0 0 0 0 0 0 -0 0 0 0 0 0 0 0 0 0 -0 0 0 0 0 -0 -0 -0 -0 0 0 0 0 0 0 0 0 0 0
-0 -0 -0 -0 -0 -0 -0 0 0 0 0 -0 -0 -0 -0 -0 0 0 0 0 0 0 0 0 0 0 0 0 0 0 0 0 0 0 0 0 0 0 0 0 0 0 -0 -0 -0 -0 0 0 0 0 0 0 0 0
-0 0 0 -0 -0 0 0 0 0 0 -0 -0 -0 -0 0 -0 -0 0 0 0 0 0 0 0 0 0 0 0 0 0 0 0 0 0 0 0 0 0 0 -0 -0 -0 -0 -0 0 0 0 0 0 0 0 0 0 0
0 0 0 -0 0 -0 -0 -0 -0 -0 0 0 0 0 0 -0 0 0 0 0 0 0 0 0 0 0 0 0 0 0 0 0 0 0 0 0 0 0 0 -0 -0 -0 -0 0 0 0 0 0 0 0 0 0 0 0
-0 -0 -0 -0 -0 -0 -0 -0 -0 -0 -0 0 0 0 0 0 0 0 0 0 0 0 0 0 0 0 0 0 0 0 0 0 0 0 0 0 0 0 0 0 -0 -0 -0 0 0 0 0 0 0 0 -0 -0 0 -0
-0 -0 -0 -0 -0 -0 -0 0 0 0 0 0 0 0 0 0 0 0 0 0 0 0 0 0 0 0 0 0 0 0 0 0 0 0 0 -0 -0 0 -0 0 0 0 0 0 0 0 0 0 0 -0 -0 -0 0 0
-0 -0 -0 0 0 0 0 0 0 0 0 0 0 0 0 0 0 0 0 0 0 0 0 0 0 0 0 0 0 0 0 0 0 0 0 0 0 0 0 0 0 0 0 0 0 0 0 0 -0 -0 -0 0 0 0
0 0 0 0 0 0 0 -0 0 0 0 0 0 0 0 0 0 0 0 0 0 0 0 0 0 0 0 0 0 0 0 0 0 0 0 0 0 0 0 0 0 0 0 0 0 0 0 0 0 0 0 0 0 0
0 0 0 0 0 0 -0 -0 0 0 0 0 0 0 0 0 0 0 0 0 0 0 0 0 0 0 0 0 0 0 0 0 0 0 0 0 0 0 0 0 0 0 0 0 0 0 0 -0 -0 0 0 0 0 0
0 0 0 0 0 0 0 0 0 0 0 0 0 0 0 0 0 0 0 0 0 0 0 0 0 0 0 0 0 0 0 0 0 0 0 0 0 0 0 0 0 0 0 0 0 0 0 0 0 0 0 0 0 0
0 0 0 0 0 0 0 0 0 0 0 0 -0 -0 0 0 0 0 0 0 0 0 0 0 0 0 0 0 0 0 0 0 0 0 0 0 0 0 0 0 0 0 0 0 0 0 0 0 0 0 0 0 0 0
0 0 0 0 0 0 0 0 0 0 -0 -0 -0 -0 0 0 0 0 0 0 0 0 0 0 0 0 0 0 0 0 0 0 0 0 0 0 0 0 0 0 0 0 0 0 0 0 0 0 0 0 0 0 0 0
Wind_Speed_500mb
65 61 65 68 68 67 63 48 37 39 37 37 35 31 31 27 25 30 31 12 10 12 40 20 15 31 35 15 6 17 14 2 6 4 1 4 5 7 5 7 7 12 13 7 6 6 10 7 10 13 13 38 45 46
66 65 65 65 67 66 62 52 35 35 37 36 33 32 34 26 24 27 28 22 24 27 44 63 54 36 42 35 29 8 9 8 5 5 3 4 6 4 8 12 3 7 4 11 4 4 8 5 7 3 25 50 38 50
61 60 60 64 61 61 59 45 33 33 36 35 33 30 34 29 29 23 33 25 21 21 40 14 3 4 18 15 11 8 6 7 7 13 5 5 8 2 8 9 9 5 4 7 13 10 13 15 23 32 40 50 45 51
61 59 62 61 53 55 54 42 36 29 37 37 34 30 33 29 28 23 25 20 18 14 9 15 19 30 16 6 9 18 30 28 27 22 12 6 5 2 4 0 3 2 14 16 11 14 29 22 27 47 58 56 57 49
59 55 57 56 50 53 48 48 35 27 35 39 33 29 30 25 28 25 20 17 10 7 8 28 46 3 14 16 13 15 27 30 27 5 6 5 5 4 3 3 5 3 11 9 9 31 22 30 35 51 62 59 58 58
53 53 56 50 49 50 49 45 32 29 35 37 33 27 24 19 19 16 9 11 15 15 11 8 18 12 12 16 18 15 27 20 11 7 6 10 5 4 2 3 7 2 2 24 23 36 50 49 45 46 65 53 48 45
47 52 53 45 42 42 42 32 30 32 38 35 31 27 21 19 16 16 7 5 12 14 8 10 11 10 16 4 7 12 15 12 12 7 6 5 5 1 4 2 13 13 23 52 67 90 53 36 40 49 55 51 45 43
49 48 42 42 38 40 33 29 31 38 40 34 30 22 19 20 20 20 13 17 11 13 11 6 8 11 8 5 2 8 7 8 8 5 6 5 6 3 5 8 19 33 51 54 42 47 62 65 57 50 45 44 43 41
47 44 40 37 35 34 28 30 34 35 32 31 24 14 18 13 9 9 15 16 19 14 8 5 6 7 15 5 3 6 3 3 4 3 2 2 4 5 2 30 41 44 32 50 59 66 60 59 54 48 41 36 39 37
40 38 36 35 34 28 27 31 30 29 22 16 6 6 6 6 9 10 6 8 10 11 14 8 6 7 8 5 3 5 3 1 2 7 13 8 5 7 21 32 15 51 67 68 66 46 49 48 49 42 35 32 34 36
39 35 30 30 27 24 29 30 23 13 4 3 3 7 6 9 7 7 7 8 10 7 12 12 14 8 7 4 4 5 2 3 2 3 3 3 5 6 25 26 39 48 50 39 48 57 49 56 51 42 38 35 35 34
31 28 28 26 27 28 30 22 14 8 7 6 7 16 4 6 6 5 6 4 10 6 9 7 4 9 8 5 3 1 2 3 2 7 1 4 6 25 34 32 45 49 37 44 47 50 51 45 40 39 40 38 34 32
23 22 26 26 26 28 22 15 10 8 10 4 6 5 3 5 6 10 12 7 5 5 2 2 2 4 6 3 2 3 3 3 3 2 1 1 14 30 38 50 51 34 43 53 50 50 48 44 37 33 38 34 32 30
25 23 26 27 22 19 18 14 13 7 6 6 7 7 8 7 8 7 4 3 3 3 3 4 4 3 5 3 2 2 3 2 0 2 2 4 24 35 42 52 53 41 49 52 53 51 47 43 38 34 31 32 30 28
26 24 21 22 21 17 17 20 15 8 7 8 8 8 11 12 10 7 7 4 4 2 6 4 3 3 3 2 1 0 3 4 4 4 3 11 40 48 52 55 49 48 50 50 49 47 42 35 36 37 33 32 29 29
20 13 8 11 10 15 21 20 14 12 8 8 12 7 9 4 7 6 9 4 1 3 6 1 3 4 4 1 4 6 4 6 3 3 2 26 42 51 54 53 46 48 46 43 41 39 35 33 35 38 37 33 32 29
19 15 19 18 15 18 20 16 10 15 12 10 11 19 15 12 9 6 5 3 2 3 3 2 6 3 1 4 5 6 5 0 2 3 9 37 49 57 56 45 51 54 48 44 41 40 37 36 36 39 41 37 33 29
17 24 27 19 17 18 18 17 10 11 12 19 10 18 22 19 13 14 12 13 10 8 5 3 2 4 4 4 3 2 4 4 5 8 28 44 51 58 48 44 58 50 49 43 38 36 34 34 34 36 39 37 32 28
17 18 23 22 12 7 8 15 17 7 14 10 21 21 17 17 21 25 22 21 20 18 6 5 6 6 6 6 8 10 6 6 9 21 31 44 52 46 47 49 53 52 48 41 37 34 33 33 35 38 37 35 28 26
15 18 22 30 20 4 9 7 15 8 8 6 14 13 14 11 16 18 30 33 25 12 11 7 7 5 6 8 12 13 5 12 35 36 33 50 55 57 54 57 54 50 46 42 37 37 38 36 34 32 29 26 24 21
7 7 14 21 17 17 10 6 8 9 8 8 6 9 7 12 15 16 17 29 19 9 7 13 19 16 13 17 9 7 10 30 38 41 48 43 47 54 47 51 46 48 37 38 36 35 34 31 32 29 25 19 15 13
16 20 16 13 12 11 13 13 8 6 7 7 6 10 7 5 5 10 24 13 13 13 20 19 28 26 14 8 3 12 21 29 30 39 44 47 47 47 48 45 48 47 35 31 31 28 29 28 26 22 21 19 17 17
15 18 8 15 11 17 9 9 7 7 5 4 4 5 5 4 7 27 10 17 10 14 24 31 14 16 5 6 14 21 26 29 44 47 43 38 34 35 37 39 43 33 34 29 27 26 26 23 22 20 20 20 23 23
8 4 6 9 10 5 4 6 8 7 5 5 4 4 6 6 5 7 6 8 9 18 22 15 17 21 19 19 27 28 27 37 41 36 35 34 35 36 35 37 33 32 28 28 27 24 22 22 22 26 19 24 26 26
5 7 5 6 7 6 6 5 7 5 6 5 5 4 3 4 1 3 3 5 13 18 19 21 15 18 26 27 25 27 28 33 36 35 39 35 34 35 32 31 32 32 29 27 27 23 18 21 26 24 28 25 21 28
7 9 10 8 6 7 5 5 6 7 4 4 6 6 8 2 3 1 3 6 16 22 15 30 30 29 28 26 26 26 30 30 29 33 31 34 34 34 34 35 34 32 30 27 26 24 20 22 25 32 34 23 17 19
6 6 10 12 6 6 6 8 8 5 5 6 3 5 6 6 3 3 6 9 15 19 20 24 24 24 25 24 21 20 22 24 28 29 31 32 33 28 26 27 24 19 15 18 22 23 20 16 17 17 29 12 14 16
11 7 9 3 9 8 3 3 4 4 4 3 5 1 2 3 3 5 5 11 14 12 10 13 14 14 14 14 14 17 20 21 24 23 27 34 34 30 29 25 17 18 16 14 21 17 16 13 10 14 14 17 17 14
9 6 5 6 6 8 11 9 7 8 5 4 1 3 3 5 8 9 12 9 10 11 10 8 6 7 9 12 13 12 16 23 25 22 32 41 36 32 26 26 26 19 20 21 18 18 18 18 19 23 21 16 15 18
6 14 6 7 6 8 9 16 5 11 10 10 10 9 8 7 7 10 9 10 6 4 4 4 6 6 9 13 19 22 21 18 24 23 28 35 36 31 35 37 32 31 25 13 12 16 17 17 18 20 16 16 18 18
3 12 7 8 4 7 11 18 18 17 12 12 12 10 9 8 6 3 7 8 7 9 9 6 4 4 4 6 9 13 19 22 21 21 19 19 27 38 41 39 36 27 18 10 11 13 15 17 17 18 19 18 17 13
10 12 5 3 3 3 4 4 6 6 6 7 8 10 10 6 5 3 4 5 8 11 9 5 4 6 12 14 10 10 11 19 23 20 26 31 42 45 43 39 32 25 19 14 16 20 22 22 24 21 19 17 17 17
5 4 2 2 1 1 2 5 4 4 3 3 3 4 4 4 2 4 4 4 6 8 6 3 8 12 14 18 23 17 12 15 24 29 30 32 38 40 38 40 31 24 22 24 26 26 26 25 23 20 18 17 17 16
Wind_Direction_500mb
300 306 302 303 302 306 309 309 310 314 321 322 326 329 335 342 338 324 319 306 277 265 286 260 272 276 288 287 297 314 317 341 316 31 282 216 235 216 182 151 179 163 155 167 131 142 204 125 147 195 112 128 141 148
297 297 300 300 298 302 308 305 304 309 316 314 317 321 329 333 328 316 309 303 293 274 272 294 286 277 262 273 262 276 277 296 322 328 252 297 245 211 189 182 181 197 220 159 214 96 356 330 297 211 151 138 133 131
300 301 298 302 301 300 304 300 296 301 307 306 309 313 318 326 320 311 302 299 304 286 309 292 230 311 306 253 219 264 270 310 281 312 290 283 265 196 192 201 136 137 151 94 163 51 64 88 105 118 131 127 130 134
301 300 298 299 298 298 298 290 287 298 300 301 303 309 312 316 312 304 292 300 292 287 284 282 298 299 256 214 303 287 290 302 297 279 228 251 258 317 237 203 199 78 141 128 91 117 101 80 115 129 127 125 122 121
298 297 295 295 296 296 290 296 282 288 294 298 304 305 309 310 311 301 281 278 247 290 290 291 311 292 201 248 289 294 298 295 289 245 228 238 262 293 234 196 147 241 155 183 155 155 105 126 128 131 123 124 129 133
298 295 291 292 291 295 291 292 276 285 291 298 298 297 298 297 309 318 287 248 240 313 300 295 309 289 300 295 268 254 287 283 234 221 243 280 264 240 220 109 15 275 176 121 123 127 113 121 122 124 126 125 129 130
303 296 294 286 290 291 292 284 280 286 288 292 291 289 280 272 265 251 245 245 309 298 270 280 282 273 314 273 20 303 272 275 228 239 188 252 287 278 11 80 351 79 117 125 137 131 115 125 120 125 128 129 130 125
290 290 289 285 286 283 278 266 274 278 290 289 283 277 276 270 264 267 249 239 251 275 251 271 277 295 325 251 69 292 247 254 258 291 127 294 334 184 82 33 91 114 114 111 123 129 131 131 131 129 131 134 130 128
287 280 277 277 276 279 277 277 278 284 297 296 290 261 279 258 221 210 214 252 267 233 281 265 279 291 332 286 222 259 294 315 331 318 109 178 3 1 104 135 136 134 127 124 121 129 129 131 135 136 137 135 133 132
287 281 279 278 278 274 268 275 291 295 296 300 279 207 215 206 216 256 270 218 207 211 224 250 258 269 306 316 275 326 89 203 266 17 344 40 81 74 146 140 135 140 135 137 122 127 134 134 141 143 141 140 138 135
282 279 274 272 268 256 260 281 285 297 332 283 224 215 226 248 244 208 226 208 186 226 218 231 226 277 278 291 315 15 345 300 317 66 180 215 112 132 158 155 145 142 142 145 146 148 150 146 148 147 145 144 140 136
280 271 270 262 258 249 266 279 264 305 306 281 286 296 271 199 210 226 218 198 219 243 194 227 236 243 280 276 271 353 337 268 18 328 342 100 121 152 161 154 150 145 143 143 143 146 148 146 146 147 146 142 137 132
263 260 263 257 247 257 254 242 235 265 301 234 198 244 215 187 214 219 202 202 227 193 239 249 237 259 270 284 252 307 336 10 304 15 2 76 135 154 156 158 153 149 148 144 144 146 146 144 145 147 143 137 134 132
247 243 241 245 251 264 264 229 214 246 254 237 217 229 218 194 235 212 232 224 177 149 348 318 281 297 294 250 20 341 50 262 330 267 208 190 167 156 159 163 157 148 149 147 147 149 147 144 143 141 139 136 137 133
243 233 235 252 251 243 217 196 207 220 224 238 217 234 224 252 271 257 229 194 153 24 356 312 256 280 267 222 1 100 186 244 238 231 218 179 167 162 161 163 155 147 148 147 149 148 145 143 143 140 139 137 136 127
217 220 223 215 187 182 182 197 221 214 232 230 231 241 235 258 247 236 213 164 238 305 325 308 292 260 239 274 202 206 185 218 253 233 256 161 161 167 164 161 158 147 147 148 151 153 150 150 149 146 141 138 131 124
199 181 193 204 194 189 197 212 214 212 224 221 234 222 235 267 262 267 223 210 260 272 255 185 236 261 55 241 228 193 214 183 236 259 171 166 163 161 158 155 157 154 146 142 149 154 153 152 150 147 144 141 132 126
209 203 194 199 212 229 230 216 235 230 218 233 229 225 230 236 239 237 218 227 215 211 212 238 220 235 242 238 217 220 228 246 266 204 172 169 168 158 145 163 156 151 147 143 145 151 156 155 153 152 151 149 145 142
197 207 216 219 231 206 226 213 214 255 245 246 238 239 242 252 247 243 246 237 234 219 264 218 231 218 230 242 284 313 279 200 152 139 152 165 160 143 151 155 161 155 153 150 151 154 155 156 158 160 162 161 162 161
232 231 230 226 226 232 252 245 185 251 257 248 242 232 220 222 253 248 234 226 209 191 224 228 220 236 222 280 287 292 255 180 148 134 139 160 166 165 166 165 162 161 158 158 154 150 149 156 162 165 167 169 171 170
222 217 207 212 218 229 282 263 233 237 269 256 268 214 232 235 244 223 213 197 182 200 233 242 247 251 289 308 297 196 173 168 160 151 151 156 172 172 164 166 168 161 160 167 164 165 166 164 162 167 172 175 182 181
192 179 195 187 214 223 249 239 241 272 259 259 252 208 228 188 252 212 176 174 189 217 205 244 268 250 256 262 225 160 161 162 167 160 157 154 160 174 178 176 170 171 176 181 180 175 177 182 183 185 187 185 182 183
208 205 231 196 224 209 260 209 240 223 239 237 214 224 215 211 257 159 190 195 193 203 225 231 172 166 236 189 162 147 154 162 160 155 154 155 160 169 174 168 171 172 181 188 187 185 183 182 196 204 216 211 200 193
167 222 252 202 216 268 233 228 226 250 246 237 197 221 183 224 235 258 175 147 168 164 175 131 143 147 140 140 146 142 145 160 162 167 167 160 159 163 166 174 175 176 174 176 178 185 198 203 199 192 185 200 210 209
225 231 234 253 226 235 229 227 199 220 248 215 233 160 156 191 202 202 172 129 153 147 175 188 164 139 137 136 142 150 150 159 163 170 167 166 167 164 169 173 178 185 186 191 197 185 209 217 202 211 210 194 208 216
236 211 203 217 228 210 226 255 206 219 232 237 217 147 163 208 244 24 90 127 133 125 153 151 145 138 138 137 135 145 161 170 175 179 181 183 176 175 176 178 182 190 195 204 215 217 217 244 217 220 214 201 255 252
246 238 228 233 249 252 257 263 262 254 244 218 170 186 195 210 121 80 119 113 114 112 106 111 124 138 142 147 151 147 153 168 176 180 174 175 181 186 185 182 190 197 202 224 233 197 212 235 214 200 177 186 239 259
241 242 222 173 217 226 246 270 264 256 285 202 174 163 95 50 93 122 125 131 161 174 130 124 136 142 144 149 164 179 180 175 182 191 190 191 194 198 200 203 207 193 187 187 175 186 200 189 184 195 220 228 243 226
241 226 216 257 252 232 223 217 223 217 251 211 101 85 83 76 113 133 154 168 160 166 172 179 189 205 223 225 211 195 195 199 197 189 195 197 203 206 205 187 176 177 178 173 185 189 184 189 204 211 213 227 216 202
248 196 221 243 228 222 227 203 201 172 155 136 114 109 94 111 141 122 116 136 158 189 209 222 244 262 252 228 215 214 211 206 205 207 206 201 199 203 181 169 168 164 156 158 176 184 191 199 201 200 205 188 179 175
247 191 238 242 275 23 101 112 112 106 99 81 96 110 130 149 158 247 271 283 288 215 195 190 185 184 180 185 195 206 217 212 200 194 189 181 190 178 166 160 156 158 149 176 184 175 179 178 173 168 162 163 166 174
203 208 230 230 166 139 83 73 75 78 81 89 96 96 118 142 182 231 218 215 181 179 191 204 224 227 231 229 221 211 215 209 200 185 174 169 169 168 171 172 170 168 164 178 172 158 149 156 153 155 161 163 169 174
200 168 127 156 122 128 112 92 69 92 78 81 87 118 135 150 142 200 200 206 178 186 189 253 276 258 234 214 211 209 208 189 184 183 175 176 186 186 191 178 172 152 167 164 154 149 148 151 151 149 148 155 167 179
Wind_Speed_850mb
65 61 65 68 68 67 63 48 37 39 37 37 35 31 31 27 25 30 31 12 10 12 40 20 15 31 35 15 6 17 14 2 6 4 1 4 5 7 5 7 7 12 13 7 6 6 10 7 10 13 13 38 45 46
66 65 65 65 67 66 62 52 35 35 37 36 33 32 34 26 24 27 28 22 24 27 44 63 54 36 42 35 29 8 9 8 5 5 3 4 6 4 8 12 3 7 4 11 4 4 8 5 7 3 25 50 38 50
61 60 60 64 61 61 59 45 33 33 36 35 33 30 34 29 29 23 33 25 21 21 40 14 3 4 18 15 11 8 6 7 7 13 5 5 8 2 8 9 9 5 4 7 13 10 13 15 23 32 40 50 45 51
61 59 62 61 53 55 54 42 36 29 37 37 34 30 33 29 28 23 25 20 18 14 9 15 19 30 16 6 9 18 30 28 27 22 12 6 5 2 4 0 3 2 14 16 11 14 29 22 27 47 58 56 57 49
59 55 57 56 50 53 48 48 35 27 35 39 33 29 30 25 28 25 20 17 10 7 8 28 46 3 14 16 13 15 27 30 27 5 6 5 5 4 3 3 5 3 11 9 9 31 22 30 35 51 62 59 58 58
53 53 56 50 49 50 49 45 32 29 35 37 33 27 24 19 19 16 9 11 15 15 11 8 18 12 12 16 18 15 27 20 11 7 6 10 5 4 2 3 7 2 2 24 23 36 50 49 45 46 65 53 48 45
47 52 53 45 42 42 42 32 30 32 38 35 31 27 21 19 16 16 7 5 12 14 8 10 11 10 16 4 7 12 15 12 12 7 6 5 5 1 4 2 13 13 23 52 67 90 53 36 40 49 55 51 45 43
49 48 42 42 38 40 33 29 31 38 40 34 30 22 19 20 20 20 13 17 11 13 11 6 8 11 8 5 2 8 7 8 8 5 6 5 6 3 5 8 19 33 51 54 42 47 62 65 57 50 45 44 43 41
47 44 40 37 35 34 28 30 34 35 32 31 24 14 18 13 9 9 15 16 19 14 8 5 6 7 15 5 3 6 3 3 4 3 2 2 4 5 2 30 41 44 32 50 59 66 60 59 54 48 41 36 39 37
40 38 36 35 34 28 27 31 30 29 22 16 6 6 6 6 9 10 6 8 10 11 14 8 6 7 8 5 3 5 3 1 2 7 13 8 5 7 21 32 15 51 67 68 66 46 49 48 49 42 35 32 34 36
39 35 30 30 27 24 29 30 23 13 4 3 3 7 6 9 7 7 7 8 10 7 12 12 14 8 7 4 4 5 2 3 2 3 3 3 5 6 25 26 39 48 50 39 48 57 49 56 51 42 38 35 35 34
31 28 28 26 27 28 30 22 14 8 7 6 7 16 4 6 6 5 6 4 10 6 9 7 4 9 8 5 3 1 2 3 2 7 1 4 6 25 34 32 45 49 37 44 47 50 51 45 40 39 40 38 34 32
23 22 26 26 26 28 22 15 10 8 10 4 6 5 3 5 6 10 12 7 5 5 2 2 2 4 6 3 2 3 3 3 3 2 1 1 14 30 38 50 51 34 43 53 50 50 48 44 37 33 38 34 32 30
25 23 26 27 22 19 18 14 13 7 6 6 7 7 8 7 8 7 4 3 3 3 3 4 4 3 5 3 2 2 3 2 0 2 2 4 24 35 42 52 53 41 49 52 53 51 47 43 38 34 31 32 30 28
26 24 21 22 21 17 17 20 15 8 7 8 8 8 11 12 10 7 7 4 4 2 6 4 3 3 3 2 1 0 3 4 4 4 3 11 40 48 52 55 49 48 50 50 49 47 42 35 36 37 33 32 29 29
20 13 8 11 10 15 21 20 14 12 8 8 12 7 9 4 7 6 9 4 1 3 6 1 3 4 4 1 4 6 4 6 3 3 2 26 42 51 54 53 46 48 46 43 41 39 35 33 35 38 37 33 32 29
19 15 19 18 15 18 20 16 10 15 12 10 11 19 15 12 9 6 5 3 2 3 3 2 6 3 1 4 5 6 5 0 2 3 9 37 49 57 56 45 51 54 48 44 41 40 37 36 36 39 41 37 33 29
17 24 27 19 17 18 18 17 10 11 12 19 10 18 22 19 13 14 12 13 10 8 5 3 2 4 4 4 3 2 4 4 5 8 28 44 51 58 48 44 58 50 49 43 38 36 34 34 34 36 39 37 32 28
17 18 23 22 12 7 8 15 17 7 14 10 21 21 17 17 21 25 22 21 20 18 6 5 6 6 6 6 8 10 6 6 9 21 31 44 52 46 47 49 53 52 48 41 37 34 33 33 35 38 37 35 28 26
15 18 22 30 20 4 9 7 15 8 8 6 14 13 14 11 16 18 30 33 25 12 11 7 7 5 6 8 12 13 5 12 35 36 33 50 55 57 54 57 54 50 46 42 37 37 38 36 34 32 29 26 24 21
7 7 14 21 17 17 10 6 8 9 8 8 6 9 7 12 15 16 17 29 19 9 7 13 19 16 13 17 9 7 10 30 38 41 48 43 47 54 47 51 46 48 37 38 36 35 34 31 32 29 25 19 15 13
16 20 16 13 12 11 13 13 8 6 7 7 6 10 7 5 5 10 24 13 13 13 20 19 28 26 14 8 3 12 21 29 30 39 44 47 47 47 48 45 48 47 35 31 31 28 29 28 26 22 21 19 17 17
15 18 8 15 11 17 9 9 7 7 5 4 4 5 5 4 7 27 10 17 10 14 24 31 14 16 5 6 14 21 26 29 44 47 43 38 34 35 37 39 43 33 34 29 27 26 26 23 22 20 20 20 23 23
8 4 6 9 10 5 4 6 8 7 5 5 4 4 6 6 5 7 6 8 9 18 22 15 17 21 19 19 27 28 27 37 41 36 35 34 35 36 35 37 33 32 28 28 27 24 22 22 22 26 19 24 26 26
5 7 5 6 7 6 6 5 7 5 6 5 5 4 3 4 1 3 3 5 13 18 19 21 15 18 26 27 25 27 28 33 36 35 39 35 34 35 32 31 32 32 29 27 27 23 18 21 26 24 28 25 21 28
7 9 10 8 6 7 5 5 6 7 4 4 6 6 8 2 3 1 3 6 16 22 15 30 30 29 28 26 26 26 30 30 29 33 31 34 34 34 34 35 34 32 30 27 26 24 20 22 25 32 34 23 17 19
6 6 10 12 6 6 6 8 8 5 5 6 3 5 6 6 3 3 6 9 15 19 20 24 24 24 25 24 21 20 22 24 28 29 31 32 33 28 26 27 24 19 15 18 22 23 20 16 17 17 29 12 14 16
11 7 9 3 9 8 3 3 4 4 4 3 5 1 2 3 3 5 5 11 14 12 10 13 14 14 14 14 14 17 20 21 24 23 27 34 34 30 29 25 17 18 16 14 21 17 16 13 10 14 14 17 17 14
9 6 5 6 6 8 11 9 7 8 5 4 1 3 3 5 8 9 12 9 10 11 10 8 6 7 9 12 13 12 16 23 25 22 32 41 36 32 26 26 26 19 20 21 18 18 18 18 19 23 21 16 15 18
6 14 6 7 6 8 9 16 5 11 10 10 10 9 8 7 7 10 9 10 6 4 4 4 6 6 9 13 19 22 21 18 24 23 28 35 36 31 35 37 32 31 25 13 12 16 17 17 18 20 16 16 18 18
3 12 7 8 4 7 11 18 18 17 12 12 12 10 9 8 6 3 7 8 7 9 9 6 4 4 4 6 9 13 19 22 21 21 19 19 27 38 41 39 36 27 18 10 11 13 15 17 17 18 19 18 17 13
10 12 5 3 3 3 4 4 6 6 6 7 8 10 10 6 5 3 4 5 8 11 9 5 4 6 12 14 10 10 11 19 23 20 26 31 42 45 43 39 32 25 19 14 16 20 22 22 24 21 19 17 17 17
5 4 2 2 1 1 2 5 4 4 3 3 3 4 4 4 2 4 4 4 6 8 6 3 8 12 14 18 23 17 12 15 24 29 30 32 38 40 38 40 31 24 22 24 26 26 26 25 23 20 18 17 17 16
Wind_Direction_850mb
300 306 302 303 302 306 309 309 310 314 321 322 326 329 335 342 338 324 319 306 277 265 286 260 272 276 288 287 297 314 317 341 316 31 282 216 235 216 182 151 179 163 155 167 131 142 204 125 147 195 112 128 141 148
297 297 300 300 298 302 308 305 304 309 316 314 317 321 329 333 328 316 309 303 293 274 272 294 286 277 262 273 262 276 277 296 322 328 252 297 245 211 189 182 181 197 220 159 214 96 356 330 297 211 151 138 133 131
300 301 298 302 301 300 304 300 296 301 307 306 309 313 318 326 320 311 302 299 304 286 309 292 230 311 306 253 219 264 270 310 281 312 290 283 265 196 192 201 136 137 151 94 163 51 64 88 105 118 131 127 130 134
301 300 298 299 298 298 298 290 287 298 300 301 303 309 312 316 312 304 292 300 292 287 284 282 298 299 256 214 303 287 290 302 297 279 228 251 258 317 237 203 199 78 141 128 91 117 101 80 115 129 127 125 122 121
298 297 295 295 296 296 290 296 282 288 294 298 304 305 309 310 311 301 281 278 247 290 290 291 311 292 201 248 289 294 298 295 289 245 228 238 262 293 234 196 147 241 155 183 155 155 105 126 128 131 123 124 129 133
298 295 291 292 291 295 291 292 276 285 291 298 298 297 298 297 309 318 287 248 240 313 300 295 309 289 300 295 268 254 287 283 234 221 243 280 264 240 220 109 15 275 176 121 123 127 113 121 122 124 126 125 129 130
303 296 294 286 290 291 292 284 280 286 288 292 291 289 280 272 265 251 245 245 309 298 270 280 282 273 314 273 20 303 272 275 228 239 188 252 287 278 11 80 351 79 117 125 137 131 115 125 120 125 128 129 130 125
290 290 289 285 286 283 278 266 274 278 290 289 283 277 276 270 264 267 249 239 251 275 251 271 277 295 325 251 69 292 247 254 258 291 127 294 334 184 82 33 91 114 114 111 123 129 131 131 131 129 131 134 130 128
287 280 277 277 276 279 277 277 278 284 297 296 290 261 279 258 221 210 214 252 267 233 281 265 279 291 332 286 222 259 294 315 331 318 109 178 3 1 104 135 136 134 127 124 121 129 129 131 135 136 137 135 133 132
287 281 279 278 278 274 268 275 291 295 296 300 279 207 215 206 216 256 270 218 207 211 224 250 258 269 306 316 275 326 89 203 266 17 344 40 81 74 146 140 135 140 135 137 122 127 134 134 141 143 141 140 138 135
282 279 274 272 268 256 260 281 285 297 332 283 224 215 226 248 244 208 226 208 186 226 218 231 226 277 278 291 315 15 345 300 317 66 180 215 112 132 158 155 145 142 142 145 146 148 150 146 148 147 145 144 140 136
280 271 270 262 258 249 266 279 264 305 306 281 286 296 271 199 210 226 218 198 219 243 194 227 236 243 280 276 271 353 337 268 18 328 342 100 121 152 161 154 150 145 143 143 143 146 148 146 146 147 146 142 137 132
263 260 263 257 247 257 254 242 235 265 301 234 198 244 215 187 214 219 202 202 227 193 239 249 237 259 270 284 252 307 336 10 304 15 2 76 135 154 156 158 153 149 148 144 144 146 146 144 145 147 143 137 134 132
247 243 241 245 251 264 264 229 214 246 254 237 217 229 218 194 235 212 232 224 177 149 348 318 281 297 294 250 20 341 50 262 330 267 208 190 167 156 159 163 157 148 149 147 147 149 147 144 143 141 139 136 137 133
243 233 235 252 251 243 217 196 207 220 224 238 217 234 224 252 271 257 229 194 153 24 356 312 256 280 267 222 1 100 186 244 238 231 218 179 167 162 161 163 155 147 148 147 149 148 145 143 143 140 139 137 136 127
217 220 223 215 187 182 182 197 221 214 232 230 231 241 235 258 247 236 213 164 238 305 325 308 292 260 239 274 202 206 185 218 253 233 256 161 161 167 164 161 158 147 147 148 151 153 150 150 149 146 141 138 131 124
199 181 193 204 194 189 197 212 214 212 224 221 234 222 235 267 262 267 223 210 260 272 255 185 236 261 55 241 228 193 214 183 236 259 171 166 163 161 158 155 157 154 146 142 149 154 153 152 150 147 144 141 132 126
209 203 194 199 212 229 230 216 235 230 218 233 229 225 230 236 239 237 218 227 215 211 212 238 220 235 242 238 217 220 228 246 266 204 172 169 168 158 145 163 156 151 147 143 145 151 156 155 153 152 151 149 145 142
197 207 216 219 231 206 226 213 214 255 245 246 238 239 242 252 247 243 246 237 234 219 264 218 231 218 230 242 284 313 279 200 152 139 152 165 160 143 151 155 161 155 153 150 151 154 155 156 158 160 162 161 162 161
232 231 230 226 226 232 252 245 185 251 257 248 242 232 220 222 253 248 234 226 209 191 224 228 220 236 222 280 287 292 255 180 148 134 139 160 166 165 166 165 162 161 158 158 154 150 149 156 162 165 167 169 171 170
222 217 207 212 218 229 282 263 233 237 269 256 268 214 232 235 244 223 213 197 182 200 233 242 247 251 289 308 297 196 173 168 160 151 151 156 172 172 164 166 168 161 160 167 164 165 166 164 162 167 172 175 182 181
192 179 195 187 214 223 249 239 241 272 259 259 252 208 228 188 252 212 176 174 189 217 205 244 268 250 256 262 225 160 161 162 167 160 157 154 160 174 178 176 170 171 176 181 180 175 177 182 183 185 187 185 182 183
208 205 231 196 224 209 260 209 240 223 239 237 214 224 215 211 257 159 190 195 193 203 225 231 172 166 236 189 162 147 154 162 160 155 154 155 160 169 174 168 171 172 181 188 187 185 183 182 196 204 216 211 200 193
167 222 252 202 216 268 233 228 226 250 246 237 197 221 183 224 235 258 175 147 168 164 175 131 143 147 140 140 146 142 145 160 162 167 167 160 159 163 166 174 175 176 174 176 178 185 198 203 199 192 185 200 210 209
225 231 234 253 226 235 229 227 199 220 248 215 233 160 156 191 202 202 172 129 153 147 175 188 164 139 137 136 142 150 150 159 163 170 167 166 167 164 169 173 178 185 186 191 197 185 209 217 202 211 210 194 208 216
236 211 203 217 228 210 226 255 206 219 232 237 217 147 163 208 244 24 90 127 133 125 153 151 145 138 138 137 135 145 161 170 175 179 181 183 176 175 176 178 182 190 195 204 215 217 217 244 217 220 214 201 255 252
246 238 228 233 249 252 257 263 262 254 244 218 170 186 195 210 121 80 119 113 114 112 106 111 124 138 142 147 151 147 153 168 176 180 174 175 181 186 185 182 190 197 202 224 233 197 212 235 214 200 177 186 239 259
241 242 222 173 217 226 246 270 264 256 285 202 174 163 95 50 93 122 125 131 161 174 130 124 136 142 144 149 164 179 180 175 182 191 190 191 194 198 200 203 207 193 187 187 175 186 200 189 184 195 220 228 243 226
241 226 216 257 252 232 223 217 223 217 251 211 101 85 83 76 113 133 154 168 160 166 172 179 189 205 223 225 211 195 195 199 197 189 195 197 203 206 205 187 176 177 178 173 185 189 184 189 204 211 213 227 216 202
248 196 221 243 228 222 227 203 201 172 155 136 114 109 94 111 141 122 116 136 158 189 209 222 244 262 252 228 215 214 211 206 205 207 206 201 199 203 181 169 168 164 156 158 176 184 191 199 201 200 205 188 179 175
247 191 238 242 275 23 101 112 112 106 99 81 96 110 130 149 158 247 271 283 288 215 195 190 185 184 180 185 195 206 217 212 200 194 189 181 190 178 166 160 156 158 149 176 184 175 179 178 173 168 162 163 166 174
203 208 230 230 166 139 83 73 75 78 81 89 96 96 118 142 182 231 218 215 181 179 191 204 224 227 231 229 221 211 215 209 200 185 174 169 169 168 171 172 170 168 164 178 172 158 149 156 153 155 161 163 169 174
200 168 127 156 122 128 112 92 69 92 78 81 87 118 135 150 142 200 200 206 178 186 189 253 276 258 234 214 211 209 208 189 184 183 175 176 186 186 191 178 172 152 167 164 154 149 148 151 151 149 148 155 167 179